Location: Camp Crooked Creek
(37.9149°N, 85.6607°W)
Time: 20:18:39
(UTC-04:00)

Lacrosse 4 - Visible Passes

Search period start: 24 June 2017 00:00
Search period end: 04 July 2017 00:00
Orbit: 673 x 680 km, 68.0° (Epoch: 25 February)

Date Brightness Start Highest point End Pass type
(mag) Time Alt. Az. Time Alt. Az. Time Alt. Az.
24 Jun 4.4 01:14:47 10° NNE 01:16:55 13° NE 01:19:02 10° ENE visible
24 Jun 1.9 02:53:27 10° NNW 02:57:33 64° NW 02:57:33 64° NW visible
25 Jun 3.1 01:48:06 10° N 01:52:24 32° ENE 01:52:49 32° ENE visible
25 Jun 3.5 03:29:02 10° NW 03:31:04 20° WNW 03:31:04 20° WNW visible
26 Jun 4.3 00:44:12 10° NNE 00:46:07 12° NE 00:48:02 10° ENE visible
26 Jun 2.3 02:22:42 10° NNW 02:26:25 54° NNW 02:26:25 54° NNW visible
27 Jun 3.1 01:17:22 10° N 01:21:38 31° ENE 01:21:50 31° ENE visible
27 Jun 3.6 02:58:13 10° NW 03:00:04 19° WNW 03:00:04 19° WNW visible
28 Jun 4.3 00:13:38 10° NNE 00:15:19 12° NE 00:17:01 10° ENE visible
28 Jun 2.4 01:51:55 10° NNW 01:55:33 52° NNW 01:55:33 52° NNW visible
29 Jun 3.1 00:46:39 10° N 00:50:51 30° NE 00:51:05 29° ENE visible
29 Jun 3.6 02:27:24 10° NW 02:29:20 20° WNW 02:29:20 20° WNW visible
29 Jun 4.2 23:43:05 10° NNE 23:44:31 11° NE 23:45:57 10° ENE visible
30 Jun 2.3 01:21:09 10° NNW 01:24:55 55° NNW 01:24:55 55° NNW visible
01 Jul 3.1 00:15:55 10° N 00:20:04 28° NE 00:20:32 28° ENE visible
01 Jul 3.6 01:56:35 10° NW 01:58:47 22° WNW 01:58:47 22° WNW visible
01 Jul 4.2 23:12:36 10° NNE 23:13:42 11° NE 23:14:49 10° ENE visible
02 Jul 2.1 00:50:24 10° NNW 00:54:27 63° N 00:54:27 63° N visible
02 Jul 3.1 23:45:12 10° N 23:49:17 27° NE 23:50:09 26° ENE visible
03 Jul 3.4 01:25:46 10° NW 01:28:25 25° WNW 01:28:25 25° WNW visible
03 Jul 4.2 22:42:18 10° NE 22:42:54 10° NE 22:43:30 10° NE visible
